Temp
-3 -3 -3 -3 -3 -3 -3 -4 -4 -4 -5 -5 -5 -5 -5 -4 -5 -5 -5 -5 -5 -6 -6 -6 -6 -6 -6 -5 -5 -5 -4 -5 -5 -5 -6 -6 -5 -5 -5 -6 -6 -5 -5 -6 -6
-3 -3 -3 -3 -3 -3 -3 -3 -3 -4 -4 -5 -5 -5 -5 -5 -5 -5 -5 -5 -5 -6 -5 -6 -6 -6 -6 -5 -5 -5 -5 -5 -5 -5 -6 -6 -6 -6 -5 -5 -6 -6 -6 -6 -6
-3 -3 -3 -3 -3 -3 -3 -3 -3 -3 -4 -4 -5 -5 -5 -5 -5 -5 -5 -5 -5 -5 -5 -6 -6 -6 -6 -5 -5 -5 -5 -5 -5 -5 -6 -6 -6 -6 -5 -5 -6 -6 -6 -6 -6
-3 -3 -3 -3 -3 -3 -3 -3 -3 -3 -3 -4 -4 -4 -4 -4 -5 -4 -4 -5 -5 -5 -5 -6 -6 -6 -5 -5 -5 -5 -5 -5 -5 -5 -6 -6 -6 -6 -6 -5 -5 -6 -6 -6 -6
-4 -3 -3 -3 -3 -3 -3 -3 -3 -3 -3 -3 -4 -4 -4 -4 -4 -4 -5 -4 -5 -6 -6 -6 -6 -6 -5 -5 -5 -5 -5 -5 -5 -5 -5 -5 -6 -6 -6 -6 -5 -5 -6 -6 -6
-4 -4 -4 -3 -3 -3 -3 -3 -3 -3 -3 -3 -3 -4 -4 -4 -4 -4 -5 -4 -5 -5 -5 -5 -6 -6 -5 -5 -5 -5 -6 -6 -5 -5 -5 -6 -6 -6 -6 -6 -5 -5 -6 -6 -6
-4 -4 -4 -3 -3 -3 -3 -3 -3 -3 -3 -3 -3 -3 -4 -3 -4 -4 -4 -4 -4 -5 -5 -5 -6 -6 -6 -6 -5 -5 -6 -6 -6 -6 -6 -6 -6 -6 -6 -6 -6 -5 -5 -6 -6
-4 -4 -3 -3 -3 -3 -3 -3 -3 -3 -3 -3 -3 -3 -3 -4 -4 -4 -4 -4 -4 -5 -5 -5 -5 -6 -6 -6 -6 -5 -6 -6 -6 -7 -7 -7 -7 -6 -6 -6 -6 -6 -5 -5 -6
-4 -4 -3 -3 -3 -3 -3 -3 -3 -3 -3 -3 -3 -3 -3 -4 -4 -4 -4 -4 -4 -4 -5 -5 -5 -5 -5 -5 -5 -6 -6 -6 -6 -6 -6 -7 -7 -7 -7 -6 -6 -6 -6 -5 -5
-4 -4 -3 -3 -3 -3 -3 -3 -3 -3 -3 -3 -3 -3 -3 -3 -4 -4 -4 -4 -4 -3 -4 -4 -5 -5 -5 -5 -6 -5 -6 -6 -6 -6 -6 -7 -6 -6 -6 -6 -6 -6 -6 -5 -5
-4 -4 -4 -4 -3 -3 -3 -4 -4 -4 -4 -4 -4 -3 -3 -3 -4 -4 -4 -4 -4 -4 -4 -4 -4 -5 -6 -5 -6 -6 -6 -6 -6 -5 -6 -6 -6 -6 -6 -7 -6 -6 -6 -6 -5
-5 -5 -5 -5 -4 -4 -4 -4 -4 -4 -4 -4 -4 -4 -4 -4 -4 -4 -4 -4 -4 -5 -5 -5 -5 -6 -5 -5 -6 -6 -5 -6 -6 -7 -6 -5 -6 -6 -6 -6 -6 -6 -6 -6 -6
-6 -6 -5 -6 -5 -5 -5 -5 -5 -5 -5 -4 -4 -4 -4 -4 -4 -5 -5 -5 -5 -5 -5 -5 -6 -6 -6 -6 -6 -6 -6 -6 -5 -5 -5 -5 -6 -7 -6 -6 -6 -5 -6 -5 -5
-6 -6 -6 -6 -6 -6 -6 -6 -6 -5 -5 -5 -5 -5 -5 -5 -5 -4 -5 -5 -5 -5 -6 -6 -6 -7 -6 -6 -7 -6 -7 -6 -5 -5 -5 -5 -6 -6 -6 -6 -6 -5 -5 -5 -5
-6 -6 -6 -6 -6 -6 -6 -6 -6 -6 -6 -6 -5 -5 -5 -5 -5 -5 -5 -6 -6 -6 -6 -6 -6 -7 -6 -7 -7 -7 -7 -7 -5 -5 -5 -4 -5 -5 -5 -6 -6 -6 -5 -5 -4
-6 -6 -6 -6 -6 -6 -6 -6 -6 -6 -6 -6 -6 -6 -6 -6 -6 -6 -6 -6 -6 -6 -6 -6 -6 -7 -7 -7 -8 -8 -8 -7 -6 -5 -5 -5 -5 -5 -5 -5 -5 -6 -6 -5 -4
-6 -6 -6 -6 -6 -6 -6 -6 -6 -6 -6 -6 -6 -6 -6 -6 -6 -6 -6 -6 -6 -6 -6 -6 -6 -7 -8 -7 -7 -8 -8 -8 -6 -5 -6 -5 -6 -5 -5 -5 -6 -6 -6 -5 -5
-6 -6 -6 -6 -6 -6 -6 -6 -6 -6 -6 -6 -6 -6 -6 -6 -6 -6 -6 -6 -6 -7 -7 -7 -7 -7 -7 -7 -7 -7 -8 -8 -7 -6 -6 -6 -5 -6 -6 -6 -7 -6 -6 -6 -5
-6 -6 -6 -6 -6 -6 -6 -6 -6 -6 -6 -6 -6 -7 -6 -6 -7 -7 -7 -6 -6 -7 -7 -7 -7 -7 -7 -8 -8 -7 -8 -8 -8 -7 -6 -6 -6 -6 -6 -6 -6 -6 -6 -6 -5
-7 -6 -6 -6 -6 -6 -6 -6 -6 -6 -6 -6 -6 -7 -7 -7 -7 -7 -7 -6 -6 -6 -7 -7 -8 -8 -8 -8 -8 -8 -8 -8 -8 -8 -7 -6 -6 -5 -6 -6 -6 -6 -6 -6 -6
-8 -7 -7 -7 -7 -6 -6 -6 -6 -6 -6 -6 -6 -6 -7 -7 -7 -7 -7 -7 -7 -7 -7 -8 -8 -9 -8 -7 -8 -8 -8 -8 -8 -8 -8 -7 -6 -6 -6 -6 -6 -6 -6 -6 -5
-8 -8 -7 -7 -7 -7 -6 -6 -6 -6 -7 -7 -7 -7 -7 -7 -7 -7 -8 -8 -8 -8 -8 -8 -8 -9 -9 -8 -7 -8 -9 -9 -8 -8 -8 -8 -7 -6 -6 -6 -6 -6 -6 -6 -5
-8 -8 -7 -7 -7 -7 -7 -7 -7 -6 -7 -7 -7 -7 -7 -8 -8 -8 -8 -8 -8 -8 -8 -8 -8 -8 -9 -8 -7 -7 -8 -9 -9 -9 -9 -8 -7 -7 -7 -6 -6 -7 -6 -6 -6
-9 -8 -8 -8 -7 -7 -7 -7 -7 -7 -7 -7 -7 -7 -8 -8 -8 -8 -9 -9 -8 -8 -8 -9 -8 -8 -8 -9 -8 -7 -8 -8 -9 -9 -9 -8 -8 -7 -7 -7 -7 -7 -7 -6 -6
-9 -9 -9 -8 -8 -8 -7 -7 -7 -7 -7 -7 -7 -7 -8 -8 -8 -8 -9 -9 -9 -9 -8 -8 -8 -8 -8 -8 -9 -9 -8 -9 -9 -9 -9 -8 -8 -7 -7 -7 -7 -7 -7 -6 -6
-11 -10 -9 -9 -9 -9 -8 -8 -8 -8 -8 -8 -8 -8 -8 -8 -8 -8 -8 -9 -9 -9 -9 -9 -9 -8 -8 -8 -8 -8 -9 -9 -9 -8 -8 -8 -8 -7 -7 -7 -7 -7 -7 -6 -7
-11 -11 -11 -10 -10 -10 -10 -10 -10 -9 -9 -9 -8 -8 -8 -8 -8 -8 -8 -9 -9 -9 -9 -10 -9 -9 -8 -8 -8 -8 -8 -8 -8 -8 -8 -8 -8 -7 -7 -7 -7 -7 -7 -6 -7
Height
5900 5899 5899 5899 5899 5899 5899 5900 5900 5900 5900 5901 5901 5899 5900 5902 5902 5902 5901 5903 5902 5902 5901 5902 5902 5902 5902 5901 5901 5901 5902 5901 5900 5898 5897 5896 5896 5896 5896 5895 5894 5894 5893 5894 5895
5897 5897 5896 5896 5897 5897 5897 5898 5899 5899 5899 5900 5901 5900 5900 5902 5903 5902 5903 5902 5903 5903 5903 5903 5904 5904 5904 5903 5903 5903 5903 5903 5902 5899 5899 5899 5898 5897 5899 5897 5896 5895 5895 5895 5896
5894 5894 5894 5894 5894 5894 5895 5896 5897 5898 5899 5899 5900 5899 5900 5901 5904 5903 5902 5903 5903 5904 5903 5904 5905 5906 5906 5905 5904 5904 5904 5904 5903 5902 5901 5900 5900 5900 5900 5900 5899 5897 5897 5897 5898
5891 5890 5891 5891 5891 5892 5892 5893 5894 5896 5897 5898 5899 5899 5899 5901 5904 5903 5903 5904 5904 5905 5905 5905 5906 5907 5907 5907 5906 5906 5906 5905 5905 5905 5903 5903 5903 5904 5903 5902 5901 5901 5899 5900 5899
5888 5887 5887 5888 5888 5888 5889 5890 5891 5893 5895 5896 5897 5898 5898 5900 5901 5903 5904 5905 5905 5905 5906 5906 5907 5908 5909 5909 5908 5907 5908 5907 5907 5907 5906 5906 5906 5906 5906 5904 5904 5904 5902 5902 5902
5884 5884 5883 5884 5885 5885 5885 5887 5887 5889 5891 5893 5895 5896 5897 5899 5900 5902 5904 5905 5905 5905 5906 5906 5908 5909 5910 5911 5911 5908 5908 5908 5907 5906 5907 5907 5907 5907 5907 5906 5906 5906 5904 5904 5904
5879 5880 5880 5880 5882 5882 5882 5883 5884 5886 5888 5889 5892 5894 5895 5897 5898 5899 5902 5904 5904 5905 5906 5907 5908 5910 5910 5912 5912 5911 5910 5909 5908 5907 5908 5909 5910 5909 5908 5908 5908 5908 5906 5905 5906
5875 5876 5876 5876 5877 5877 5878 5879 5880 5882 5884 5885 5887 5890 5892 5894 5896 5897 5899 5901 5902 5904 5904 5906 5907 5910 5911 5912 5912 5912 5911 5911 5911 5911 5912 5912 5911 5910 5910 5909 5909 5908 5909 5907 5907
5870 5871 5871 5871 5872 5873 5873 5875 5876 5878 5879 5881 5883 5886 5889 5890 5892 5894 5895 5897 5899 5901 5904 5906 5908 5909 5911 5911 5911 5912 5912 5913 5912 5913 5913 5914 5913 5913 5912 5911 5909 5909 5909 5911 5910
5866 5866 5866 5867 5867 5868 5868 5870 5871 5873 5875 5877 5879 5882 5885 5886 5888 5890 5891 5894 5896 5900 5903 5905 5908 5909 5910 5909 5911 5912 5912 5912 5913 5914 5914 5913 5913 5913 5913 5912 5910 5910 5910 5910 5912
5861 5861 5861 5862 5863 5863 5864 5865 5869 5870 5870 5873 5875 5876 5879 5882 5885 5886 5887 5890 5892 5897 5901 5903 5907 5908 5908 5908 5911 5913 5912 5912 5912 5912 5913 5913 5913 5913 5912 5911 5911 5911 5910 5911 5911
5856 5857 5858 5858 5858 5859 5860 5861 5863 5865 5866 5868 5869 5872 5874 5877 5880 5882 5883 5886 5889 5892 5897 5903 5905 5903 5905 5907 5910 5911 5912 5912 5911 5909 5910 5912 5912 5912 5913 5912 5912 5911 5911 5911 5911
5852 5853 5855 5854 5855 5856 5856 5857 5859 5860 5862 5864 5865 5867 5870 5872 5875 5877 5879 5881 5884 5887 5890 5899 5901 5899 5902 5904 5907 5909 5910 5909 5910 5909 5909 5911 5910 5911 5912 5912 5911 5911 5911 5911 5911
5848 5849 5851 5852 5854 5853 5853 5854 5855 5856 5858 5861 5862 5863 5866 5867 5869 5871 5874 5877 5878 5882 5885 5890 5894 5896 5898 5902 5905 5906 5905 5907 5909 5909 5909 5910 5911 5910 5912 5912 5911 5910 5911 5911 5911
5844 5844 5846 5848 5849 5850 5851 5852 5852 5854 5856 5859 5859 5860 5862 5865 5865 5867 5868 5870 5874 5877 5879 5885 5891 5894 5896 5900 5900 5902 5902 5906 5907 5909 5911 5911 5912 5911 5911 5911 5910 5909 5909 5910 5912
5840 5839 5842 5844 5845 5846 5848 5849 5851 5853 5853 5855 5856 5857 5859 5861 5862 5863 5865 5867 5869 5870 5871 5876 5883 5887 5894 5894 5894 5896 5899 5902 5906 5908 5909 5909 5911 5911 5910 5910 5908 5907 5907 5909 5911
5836 5836 5837 5838 5840 5842 5844 5846 5848 5848 5851 5852 5853 5854 5855 5856 5858 5859 5861 5863 5865 5867 5870 5873 5875 5880 5885 5888 5888 5892 5896 5900 5904 5906 5908 5907 5910 5910 5910 5908 5907 5908 5908 5909 5910
5830 5832 5832 5834 5835 5838 5840 5842 5843 5845 5846 5848 5850 5851 5852 5853 5855 5856 5857 5859 5860 5863 5864 5866 5869 5875 5880 5882 5887 5890 5893 5896 5898 5902 5903 5904 5908 5908 5908 5907 5907 5907 5908 5909 5908
5824 5826 5826 5828 5830 5832 5835 5836 5838 5840 5842 5844 5846 5847 5849 5849 5852 5853 5854 5855 5856 5858 5861 5863 5865 5869 5873 5879 5883 5884 5887 5893 5893 5895 5896 5899 5904 5908 5906 5907 5906 5905 5905 5905 5906
5817 5818 5820 5821 5823 5825 5828 5829 5831 5834 5837 5838 5840 5842 5844 5846 5849 5850 5850 5853 5854 5855 5856 5858 5860 5862 5865 5869 5873 5877 5885 5886 5887 5889 5891 5893 5896 5901 5903 5904 5904 5903 5901 5900 5902
5809 5810 5812 5813 5815 5817 5819 5822 5823 5826 5830 5832 5833 5836 5839 5841 5843 5845 5847 5850 5851 5852 5854 5857 5858 5860 5861 5863 5865 5869 5874 5879 5883 5884 5885 5887 5890 5896 5897 5899 5899 5900 5898 5896 5898
5801 5802 5804 5805 5808 5808 5811 5813 5815 5818 5821 5824 5826 5829 5831 5835 5837 5840 5843 5845 5848 5850 5851 5854 5855 5856 5857 5859 5860 5863 5869 5875 5876 5880 5881 5881 5881 5889 5890 5891 5892 5896 5895 5894 5896
5792 5793 5795 5796 5798 5799 5802 5804 5805 5809 5812 5815 5818 5820 5823 5826 5831 5833 5836 5840 5843 5845 5847 5850 5851 5853 5854 5855 5856 5857 5861 5867 5871 5874 5872 5874 5877 5882 5884 5884 5887 5890 5891 5891 5893
5784 5784 5785 5787 5788 5789 5791 5794 5796 5797 5800 5804 5808 5811 5814 5817 5820 5824 5827 5831 5836 5839 5842 5844 5846 5849 5852 5852 5853 5854 5857 5860 5866 5865 5869 5868 5874 5878 5881 5880 5881 5884 5886 5888 5889
5775 5775 5775 5777 5778 5779 5781 5783 5785 5787 5790 5792 5796 5800 5804 5808 5811 5814 5817 5821 5824 5829 5833 5836 5839 5843 5846 5847 5849 5851 5852 5856 5859 5862 5861 5867 5869 5873 5876 5876 5876 5878 5879 5882 5886
5766 5766 5767 5768 5769 5770 5772 5774 5775 5777 5780 5782 5785 5788 5792 5796 5800 5804 5807 5810 5814 5818 5823 5827 5830 5834 5839 5841 5843 5846 5849 5850 5854 5855 5857 5861 5864 5869 5870 5871 5872 5876 5877 5879 5881
5757 5756 5758 5759 5760 5762 5764 5766 5767 5767 5770 5772 5775 5778 5781 5784 5788 5792 5796 5800 5803 5807 5811 5816 5820 5823 5829 5833 5836 5839 5843 5846 5848 5852 5855 5857 5862 5864 5866 5866 5867 5871 5874 5877 5878
Wind_Speed
12 12 11 10 9 8 6 4 2 3 4 4 3 5 1 6 10 10 11 11 8 11 17 15 10 9 6 4 4 6 9 13 16 20 22 18 14 11 8 6 3 2 5 7 11
13 12 12 12 11 10 8 6 3 3 3 3 4 5 3 3 7 7 8 10 9 8 8 4 7 3 3 3 6 4 8 10 13 16 17 15 12 13 11 12 10 4 6 8 10
13 13 13 13 13 12 12 9 7 5 4 4 4 5 4 2 6 6 5 7 11 5 5 9 5 1 2 4 7 5 6 7 10 12 12 13 11 11 10 12 13 7 6 9 11
13 13 13 14 14 14 14 14 12 9 7 7 7 6 4 2 4 7 5 6 8 5 1 6 4 2 5 4 8 8 5 5 5 8 9 10 9 8 9 11 13 12 7 11 12
14 14 13 13 14 15 15 16 16 13 12 10 9 10 7 4 2 6 7 6 6 7 4 6 3 2 5 5 12 13 9 5 6 10 10 9 8 8 8 9 11 11 11 6 9
17 16 15 14 14 14 15 15 15 14 14 14 13 13 12 9 5 4 7 7 7 5 6 9 8 4 3 9 9 18 16 13 11 12 12 10 8 7 9 8 7 8 12 7 4
18 17 18 17 16 16 17 16 15 15 14 14 16 16 16 13 9 7 6 5 6 6 6 10 7 2 1 6 8 14 17 14 13 11 11 9 7 6 7 6 6 6 10 12 8
19 18 18 18 18 19 19 18 17 16 16 16 16 18 18 17 15 13 11 9 9 10 9 11 8 7 6 4 10 12 13 12 11 10 8 7 7 5 3 3 5 5 6 9 10
19 19 19 20 20 21 20 20 19 19 17 17 17 18 18 21 21 18 18 17 14 13 11 9 8 9 9 6 9 8 8 8 9 8 8 4 3 3 2 1 4 4 4 4 6
19 18 18 19 20 20 20 21 20 20 20 19 19 18 19 21 22 22 23 21 19 14 12 11 8 7 12 11 8 4 3 8 10 8 8 6 4 3 3 3 5 2 1 1 2
18 16 16 17 18 19 18 19 19 20 20 20 21 21 21 20 21 23 25 24 25 20 13 13 8 9 15 15 10 9 8 7 8 4 8 7 9 7 5 1 2 2 1 1 1
17 15 14 15 15 15 15 17 17 18 18 19 20 20 20 20 21 23 26 26 25 22 19 13 10 17 16 17 15 16 12 10 6 4 10 10 8 2 3 2 2 2 1 3 3
17 16 14 15 11 10 12 15 15 16 17 18 18 18 18 19 20 23 25 24 24 25 23 14 16 19 18 15 15 15 14 12 8 9 9 11 8 8 3 3 0 1 2 4 6
16 17 15 16 13 10 12 13 14 14 14 15 14 15 15 18 21 23 25 25 26 24 25 24 24 23 21 17 18 18 16 13 8 9 9 10 13 11 6 2 3 6 6 5 6
15 20 16 17 17 14 14 13 14 13 13 12 11 12 10 12 19 22 25 26 23 23 29 24 24 24 23 18 23 21 20 16 13 11 9 8 8 7 5 9 10 14 13 9 7
14 20 15 17 17 18 17 15 15 15 14 12 11 10 8 7 10 17 22 24 24 27 29 26 26 29 26 31 30 28 22 21 14 11 12 13 7 7 7 8 8 4 15 12 11
16 18 15 17 17 16 19 20 19 18 14 15 12 10 10 8 9 12 16 19 23 24 22 23 26 30 32 35 38 32 26 22 16 14 12 16 9 8 9 8 7 4 7 11 13
19 18 17 17 17 17 18 19 21 20 19 18 13 14 15 12 9 13 16 16 19 20 20 23 25 25 34 36 35 34 30 26 24 22 21 20 15 13 12 9 9 7 8 12 11
24 22 22 20 20 19 21 22 23 21 21 22 20 20 19 18 13 12 15 16 20 20 20 19 20 22 32 36 37 37 37 29 30 30 30 26 24 16 16 14 13 9 13 18 18
27 27 26 25 25 24 25 25 26 26 25 26 24 24 23 23 19 18 17 14 14 16 19 19 20 24 31 37 44 43 37 35 33 34 33 28 21 18 21 20 15 12 12 17 16
25 27 28 29 29 29 28 29 29 29 27 28 29 28 27 27 24 22 20 16 14 13 14 17 18 18 26 33 41 47 44 42 38 38 36 31 26 11 11 25 23 15 9 9 15
26 26 26 29 30 31 31 32 32 32 31 30 32 31 31 29 28 27 24 21 19 18 18 17 21 22 17 25 34 42 47 42 42 39 36 36 32 13 13 22 26 22 14 11 15
29 29 28 28 30 32 32 33 35 36 35 34 34 35 34 34 32 32 30 27 25 24 23 19 18 20 22 26 26 34 45 48 44 41 40 38 30 9 15 19 30 26 23 15 17
27 28 29 30 30 31 31 33 34 36 37 37 38 38 37 38 38 38 37 36 32 29 29 27 25 22 23 23 23 26 34 40 42 43 39 37 27 9 13 17 26 28 23 18 20
24 26 28 29 30 30 31 32 34 35 36 37 38 39 40 41 42 42 42 42 41 38 33 33 33 31 26 25 24 22 25 32 39 37 37 29 29 18 20 18 31 31 25 25 24
29 24 24 26 28 30 30 30 32 33 34 35 36 37 38 40 44 45 45 46 46 45 43 40 38 34 33 31 29 30 27 31 33 32 28 25 28 21 26 20 24 30 28 25 22
26 25 27 26 26 28 29 31 31 33 35 35 36 37 37 38 39 42 46 48 49 48 48 46 44 43 38 34 33 32 34 33 32 31 29 31 29 27 28 19 20 33 30 22 20
Wind_Direction
278 279 282 282 280 284 289 293 286 273 271 287 298 281 50 72 74 94 102 120 114 99 106 111 102 114 117 110 99 75 82 83 83 82 69 67 75 75 70 64 54 78 131 141 150
270 270 271 273 275 274 274 272 265 254 246 255 256 255 256 111 88 98 105 134 129 121 133 120 122 92 152 136 112 106 94 93 89 85 86 82 78 81 73 61 49 60 107 128 158
267 262 262 263 265 267 268 264 254 234 229 229 236 239 247 175 122 118 131 134 148 129 53 109 134 270 58 143 132 117 97 97 97 95 92 87 77 68 64 64 44 59 120 134 145
263 260 258 257 258 260 263 261 257 244 230 227 229 231 235 143 150 148 145 129 167 186 167 105 116 74 85 143 139 113 101 98 95 88 87 80 64 64 54 53 50 57 120 146 145
258 256 255 257 257 256 259 260 259 251 238 228 233 234 234 217 176 143 165 151 170 195 151 164 125 85 89 107 128 110 96 76 77 73 63 65 43 38 50 48 51 52 88 142 161
255 253 254 253 254 256 257 257 259 254 242 233 229 236 232 235 212 182 172 174 166 198 182 170 160 99 95 81 125 117 98 87 61 61 66 64 57 45 47 45 45 62 72 106 158
255 253 252 252 254 255 257 255 254 255 248 238 227 232 234 237 226 224 205 196 186 177 187 171 141 143 174 89 120 112 98 83 72 51 54 59 56 46 46 59 30 56 77 75 126
253 254 254 253 252 253 254 255 253 252 249 242 233 228 232 234 224 225 224 218 203 194 190 191 182 170 187 163 121 103 93 92 98 98 99 78 66 61 53 67 81 41 62 97 107
255 257 258 256 258 255 253 252 251 248 246 241 236 229 225 229 228 225 235 226 221 211 205 195 185 181 185 168 147 140 115 98 112 121 129 118 117 133 112 92 94 72 28 72 117
258 261 262 260 260 256 252 251 249 249 246 244 241 235 227 227 230 229 235 239 237 232 209 210 190 179 183 166 174 175 119 128 150 147 165 128 97 47 18 353 22 41 43 359 111
260 262 264 263 262 259 255 250 248 246 246 244 241 239 233 228 223 230 239 240 246 241 225 217 200 183 188 182 171 166 153 150 168 192 205 169 109 65 41 22 337 5 270 267 282
258 254 258 264 265 262 254 248 243 245 243 242 243 242 240 236 227 228 235 239 245 252 240 210 202 216 207 209 191 181 170 170 189 215 190 180 163 42 65 79 46 13 358 157 261
248 250 246 260 262 257 239 235 230 233 233 235 235 234 235 236 232 227 230 239 237 242 246 212 201 223 221 218 203 191 187 196 199 179 176 183 138 134 110 74 345 280 258 197 178
243 250 249 251 251 241 226 222 220 225 230 232 233 234 230 228 226 231 231 231 234 237 240 222 213 217 226 215 209 199 200 207 222 198 185 177 156 160 158 176 255 248 234 234 185
253 256 254 246 243 233 227 214 216 220 228 231 234 241 226 231 232 229 233 229 231 234 239 242 217 217 221 209 211 208 218 219 228 231 198 226 186 165 194 227 250 274 256 226 220
260 262 261 251 244 231 225 221 219 222 227 234 241 253 255 252 241 234 230 233 227 229 235 235 218 216 212 208 212 213 217 228 217 232 252 237 213 227 242 282 325 293 247 251 245
261 262 259 254 248 236 229 224 225 227 229 238 240 253 261 271 256 255 241 232 230 230 237 238 228 211 211 214 218 217 214 226 223 212 213 234 210 217 233 290 314 317 249 267 262
259 258 258 253 248 243 236 233 231 229 233 241 242 247 258 264 264 254 248 239 232 218 213 217 224 217 220 220 221 222 215 225 232 218 233 238 221 198 222 236 248 279 285 253 258
257 255 255 253 250 246 241 237 237 236 238 242 243 244 249 259 262 271 254 231 225 218 215 219 223 219 214 218 223 225 220 223 235 241 249 246 243 223 223 234 239 248 283 280 259
258 254 255 254 251 247 243 241 240 243 242 245 242 242 243 249 254 259 261 258 252 229 216 208 213 214 209 216 217 224 222 228 236 249 256 263 258 234 225 227 238 245 262 267 239
260 256 253 251 250 247 245 243 242 242 240 242 247 245 240 242 246 248 252 259 260 258 234 211 220 226 224 222 221 223 225 228 238 243 256 265 265 253 223 221 231 230 245 256 212
260 259 255 251 249 249 248 246 245 242 240 237 242 244 247 244 246 249 242 244 246 253 241 223 221 218 238 229 226 225 224 229 237 246 257 264 269 273 260 223 226 223 235 246 224
263 261 258 257 250 247 247 247 247 246 243 238 237 240 243 244 242 244 246 244 239 244 244 237 237 230 229 242 236 231 226 229 236 245 251 258 271 297 273 271 225 227 229 237 232
266 262 259 256 253 248 246 245 243 244 244 243 240 237 236 239 242 242 242 246 245 240 238 239 241 234 228 241 248 243 234 229 230 242 251 261 272 239 256 257 207 220 225 216 225
278 265 258 254 252 248 244 242 242 241 241 242 241 239 238 237 238 240 242 244 246 246 241 239 243 243 235 229 232 244 237 231 232 246 254 265 265 256 260 251 216 220 222 212 219
267 278 264 254 248 247 244 241 240 240 239 241 242 244 241 238 239 239 240 243 244 245 244 246 246 242 240 241 235 231 232 235 234 245 245 251 259 253 267 267 237 218 216 206 217
277 272 272 270 259 250 246 244 243 245 244 245 244 243 243 244 242 240 241 242 243 243 244 242 245 248 242 239 242 237 227 231 238 242 240 246 254 254 266 255 271 217 221 213 207